Year,Month,Day,Hour,Minute,Value (Times are PST for temperature in C)
2017,07,15,00,00,17.30
2017,07,15,00,01,17.30
2017,07,15,00,02,17.30
2017,07,15,00,03,17.30
2017,07,15,00,04,17.30
2017,07,15,00,05,17.30
2017,07,15,00,06,17.30
2017,07,15,00,07,17.30
2017,07,15,00,08,17.30
2017,07,15,00,09,17.30
2017,07,15,00,10,17.30
2017,07,15,00,11,17.30
2017,07,15,00,12,17.30
2017,07,15,00,13,17.30
2017,07,15,00,14,17.30
2017,07,15,00,15,17.30
2017,07,15,00,16,17.30
2017,07,15,00,17,17.30
2017,07,15,00,18,17.30
2017,07,15,00,19,17.30
2017,07,15,00,20,17.30
2017,07,15,00,21,17.30
2017,07,15,00,22,17.30
2017,07,15,00,23,17.30
2017,07,15,00,24,17.30
2017,07,15,00,25,17.30
2017,07,15,00,26,17.30
2017,07,15,00,27,17.30
2017,07,15,00,28,17.30
2017,07,15,00,29,17.30
2017,07,15,00,30,17.30
2017,07,15,00,31,17.30
2017,07,15,00,32,17.30
2017,07,15,00,33,17.30
2017,07,15,00,34,17.30
2017,07,15,00,35,17.30
2017,07,15,00,36,17.30
2017,07,15,00,37,17.30
2017,07,15,00,38,17.30
2017,07,15,00,39,17.30
2017,07,15,00,40,17.30
2017,07,15,00,41,17.30
2017,07,15,00,42,17.30
2017,07,15,00,43,17.20
2017,07,15,00,44,17.20
2017,07,15,00,45,17.20
2017,07,15,00,46,17.20
2017,07,15,00,47,17.20
2017,07,15,00,48,17.20
2017,07,15,00,49,17.20
2017,07,15,00,50,17.20
2017,07,15,00,51,17.20
2017,07,15,00,52,17.20
2017,07,15,00,53,17.20
2017,07,15,00,54,17.20
2017,07,15,00,55,17.20
2017,07,15,00,56,17.20
2017,07,15,00,57,17.20
2017,07,15,00,58,17.20
2017,07,15,00,59,17.20
2017,07,15,01,00,17.20
2017,07,15,01,01,17.20
2017,07,15,01,02,17.20
2017,07,15,01,03,17.20
2017,07,15,01,04,17.20
2017,07,15,01,05,17.20
2017,07,15,01,06,17.20
2017,07,15,01,07,17.20
2017,07,15,01,08,17.20
2017,07,15,01,09,17.20
2017,07,15,01,10,17.20
2017,07,15,01,11,17.20
2017,07,15,01,12,17.20
2017,07,15,01,13,17.20
2017,07,15,01,14,17.20
2017,07,15,01,15,17.20
2017,07,15,01,16,17.10
2017,07,15,01,17,17.10
2017,07,15,01,18,17.10
2017,07,15,01,19,17.10
2017,07,15,01,20,17.10
2017,07,15,01,21,17.00
2017,07,15,01,22,17.00
2017,07,15,01,23,17.00
2017,07,15,01,24,17.00
2017,07,15,01,25,17.00
2017,07,15,01,26,17.00
2017,07,15,01,27,16.90
2017,07,15,01,28,16.90
2017,07,15,01,29,16.90
2017,07,15,01,30,16.90
2017,07,15,01,31,16.90
2017,07,15,01,32,16.90
2017,07,15,01,33,16.90
2017,07,15,01,34,16.80
2017,07,15,01,35,16.80
2017,07,15,01,36,16.80
2017,07,15,01,37,16.80
2017,07,15,01,38,16.70
2017,07,15,01,39,16.70
2017,07,15,01,40,16.70
2017,07,15,01,41,16.70
2017,07,15,01,42,16.70
2017,07,15,01,43,16.60
2017,07,15,01,44,16.60
2017,07,15,01,45,16.60
2017,07,15,01,46,16.60
2017,07,15,01,47,16.60
2017,07,15,01,48,16.60
2017,07,15,01,49,16.60
2017,07,15,01,50,16.60
2017,07,15,01,51,16.60
2017,07,15,01,52,16.60
2017,07,15,01,53,16.60
2017,07,15,01,54,16.60
2017,07,15,01,55,16.60
2017,07,15,01,56,16.60
2017,07,15,01,57,16.60
2017,07,15,01,58,16.60
2017,07,15,01,59,16.60
2017,07,15,02,00,16.60
2017,07,15,02,01,16.60
2017,07,15,02,02,16.60
2017,07,15,02,03,16.60
2017,07,15,02,04,16.60
2017,07,15,02,05,16.60
2017,07,15,02,06,16.60
2017,07,15,02,07,16.60
2017,07,15,02,08,16.60
2017,07,15,02,09,16.60
2017,07,15,02,10,16.70
2017,07,15,02,11,16.70
2017,07,15,02,12,16.70
2017,07,15,02,13,16.70
2017,07,15,02,14,16.70
2017,07,15,02,15,16.70
2017,07,15,02,16,16.70
2017,07,15,02,17,16.70
2017,07,15,02,18,16.70
2017,07,15,02,19,16.80
2017,07,15,02,20,16.80
2017,07,15,02,21,16.80
2017,07,15,02,22,16.80
2017,07,15,02,23,16.80
2017,07,15,02,24,16.80
2017,07,15,02,25,16.80
2017,07,15,02,26,16.80
2017,07,15,02,27,16.80
2017,07,15,02,28,16.80
2017,07,15,02,29,16.80
2017,07,15,02,30,16.80
2017,07,15,02,31,16.80
2017,07,15,02,32,16.80
2017,07,15,02,33,16.80
2017,07,15,02,34,16.80
2017,07,15,02,35,16.80
2017,07,15,02,36,16.80
2017,07,15,02,37,16.80
2017,07,15,02,38,16.80
2017,07,15,02,39,16.80
2017,07,15,02,40,16.70
2017,07,15,02,41,16.70
2017,07,15,02,42,16.70
2017,07,15,02,43,16.70
2017,07,15,02,44,16.70
2017,07,15,02,45,16.70
2017,07,15,02,46,16.60
2017,07,15,02,47,16.60
2017,07,15,02,48,16.60
2017,07,15,02,49,16.60
2017,07,15,02,50,16.60
2017,07,15,02,51,16.60
2017,07,15,02,52,16.50
2017,07,15,02,53,16.50
2017,07,15,02,54,16.50
2017,07,15,02,55,16.50
2017,07,15,02,56,16.40
2017,07,15,02,57,16.40
2017,07,15,02,58,16.40
2017,07,15,02,59,16.40
2017,07,15,03,00,16.30
2017,07,15,03,01,16.30
2017,07,15,03,02,16.30
2017,07,15,03,03,16.30
2017,07,15,03,04,16.30
2017,07,15,03,05,16.30
2017,07,15,03,06,16.20
2017,07,15,03,07,16.20
2017,07,15,03,08,16.20
2017,07,15,03,09,16.20
2017,07,15,03,10,16.10
2017,07,15,03,11,16.10
2017,07,15,03,12,16.00
2017,07,15,03,13,16.00
2017,07,15,03,14,15.90
2017,07,15,03,15,15.90
2017,07,15,03,16,15.80
2017,07,15,03,17,15.80
2017,07,15,03,18,15.80
2017,07,15,03,19,15.80
2017,07,15,03,20,15.70
2017,07,15,03,21,15.70
2017,07,15,03,22,15.70
2017,07,15,03,23,15.70
2017,07,15,03,24,15.60
2017,07,15,03,25,15.60
2017,07,15,03,26,15.60
2017,07,15,03,27,15.60
2017,07,15,03,28,15.60
2017,07,15,03,29,15.60
2017,07,15,03,30,15.50
2017,07,15,03,31,15.50
2017,07,15,03,32,15.50
2017,07,15,03,33,15.50
2017,07,15,03,34,15.50
2017,07,15,03,35,15.50
2017,07,15,03,36,15.50
2017,07,15,03,37,15.40
2017,07,15,03,38,15.40
2017,07,15,03,39,15.40
2017,07,15,03,40,15.40
2017,07,15,03,41,15.40
2017,07,15,03,42,15.40
2017,07,15,03,43,15.40
2017,07,15,03,44,15.30
2017,07,15,03,45,15.30
2017,07,15,03,46,15.30
2017,07,15,03,47,15.30
2017,07,15,03,48,15.30
2017,07,15,03,49,15.20
2017,07,15,03,50,15.20
2017,07,15,03,51,15.20
2017,07,15,03,52,15.20
2017,07,15,03,53,15.10
2017,07,15,03,54,15.10
2017,07,15,03,55,15.10
2017,07,15,03,56,15.10
2017,07,15,03,57,15.00
2017,07,15,03,58,15.00
2017,07,15,03,59,15.00
2017,07,15,04,00,14.90
2017,07,15,04,01,14.90
2017,07,15,04,02,14.90
2017,07,15,05,04,13.90
2017,07,15,05,05,13.90
2017,07,15,05,06,13.90
2017,07,15,05,07,13.90
2017,07,15,05,08,13.90
2017,07,15,05,09,13.90
2017,07,15,05,10,13.90
2017,07,15,05,11,13.90
2017,07,15,05,12,13.90
2017,07,15,05,13,13.90
2017,07,15,05,14,13.90
2017,07,15,05,15,13.90
2017,07,15,05,16,13.90
2017,07,15,05,17,13.90
2017,07,15,05,18,13.90
2017,07,15,05,19,13.90
2017,07,15,05,20,13.90
2017,07,15,05,21,13.90
2017,07,15,05,22,13.90
2017,07,15,05,23,13.90
2017,07,15,05,24,13.90
2017,07,15,05,25,13.90
2017,07,15,05,26,13.80
2017,07,15,05,27,13.80
2017,07,15,05,28,13.80
2017,07,15,05,29,13.80
2017,07,15,05,30,13.80
2017,07,15,05,31,13.80
2017,07,15,05,32,13.80
2017,07,15,05,33,13.80
2017,07,15,05,34,13.80
2017,07,15,05,35,13.80
2017,07,15,05,36,13.80
2017,07,15,05,37,13.80
2017,07,15,05,38,13.80
2017,07,15,05,39,13.80
2017,07,15,05,40,13.80
2017,07,15,05,41,13.80
2017,07,15,05,42,13.70
2017,07,15,05,43,13.70
2017,07,15,05,44,13.70
2017,07,15,05,45,13.70
2017,07,15,05,46,13.70
2017,07,15,05,47,13.70
2017,07,15,05,48,13.70
2017,07,15,05,49,13.70
2017,07,15,05,50,13.70
2017,07,15,05,51,13.70
2017,07,15,05,52,13.70
2017,07,15,05,53,13.70
2017,07,15,05,54,13.70
2017,07,15,05,55,13.60
2017,07,15,05,56,13.60
2017,07,15,05,57,13.60
2017,07,15,05,58,13.60
2017,07,15,05,59,13.60
2017,07,15,06,00,13.60
2017,07,15,06,01,13.60
2017,07,15,06,02,13.60
2017,07,15,06,03,13.60
2017,07,15,06,04,13.50
2017,07,15,06,05,13.50
2017,07,15,06,06,13.50
2017,07,15,06,07,13.50
2017,07,15,06,08,13.50
2017,07,15,06,09,13.40
2017,07,15,06,10,13.40
2017,07,15,06,11,13.40
2017,07,15,06,12,13.40
2017,07,15,06,13,13.40
2017,07,15,06,14,13.40
2017,07,15,06,15,13.40
2017,07,15,06,16,13.40
2017,07,15,06,17,13.40
2017,07,15,06,18,13.40
2017,07,15,06,19,13.40
2017,07,15,06,20,13.40
2017,07,15,06,21,13.40
2017,07,15,06,22,13.40
2017,07,15,06,23,13.40
2017,07,15,06,24,13.40
2017,07,15,06,25,13.40
2017,07,15,06,26,13.40
2017,07,15,06,27,13.40
2017,07,15,06,28,13.40
2017,07,15,06,29,13.40
2017,07,15,06,30,13.40
2017,07,15,06,31,13.40
2017,07,15,06,32,13.40
2017,07,15,06,33,13.40
2017,07,15,06,34,13.40
2017,07,15,06,35,13.40
2017,07,15,06,36,13.40
2017,07,15,06,37,13.40
2017,07,15,06,38,13.40
2017,07,15,06,39,13.40
2017,07,15,06,40,13.50
2017,07,15,06,41,13.50
2017,07,15,06,42,13.50
2017,07,15,06,43,13.60
2017,07,15,06,44,13.60
2017,07,15,06,45,13.60
2017,07,15,06,46,13.60
2017,07,15,06,47,13.60
2017,07,15,06,48,13.70
2017,07,15,06,49,13.70
2017,07,15,06,50,13.70
2017,07,15,06,51,13.70
2017,07,15,06,52,13.80
2017,07,15,06,53,13.80
2017,07,15,06,54,13.80
2017,07,15,06,55,13.80
2017,07,15,06,56,13.80
2017,07,15,06,57,13.80
2017,07,15,06,58,13.80
2017,07,15,06,59,13.90
2017,07,15,07,00,13.90
2017,07,15,07,01,13.90
2017,07,15,07,02,13.90
2017,07,15,07,03,13.90
2017,07,15,07,04,14.00
2017,07,15,07,05,14.00
2017,07,15,07,06,14.00
2017,07,15,07,07,14.10
2017,07,15,07,08,14.10
2017,07,15,07,09,14.10
2017,07,15,07,10,14.20
2017,07,15,07,11,14.20
2017,07,15,07,12,14.20
2017,07,15,07,13,14.30
2017,07,15,07,14,14.30
2017,07,15,07,15,14.40
2017,07,15,07,16,14.40
2017,07,15,07,17,14.40
2017,07,15,07,18,14.40
2017,07,15,07,19,14.50
2017,07,15,07,20,14.50
2017,07,15,07,21,14.50
2017,07,15,07,22,14.60
2017,07,15,07,23,14.60
2017,07,15,07,24,14.60
2017,07,15,07,25,14.60
2017,07,15,07,26,14.60
2017,07,15,07,27,14.60
2017,07,15,07,28,14.70
2017,07,15,07,29,14.70
2017,07,15,07,30,14.80
2017,07,15,07,31,14.80
2017,07,15,07,32,14.80
2017,07,15,07,33,14.80
2017,07,15,07,34,14.80
2017,07,15,07,35,14.80
2017,07,15,07,36,14.80
2017,07,15,07,37,14.80
2017,07,15,07,38,14.90
2017,07,15,07,39,14.90
2017,07,15,07,40,15.00
2017,07,15,07,41,15.10
2017,07,15,07,42,15.10
2017,07,15,07,43,15.10
2017,07,15,07,44,15.10
2017,07,15,07,45,15.20
2017,07,15,07,46,15.30
2017,07,15,07,47,15.30
2017,07,15,07,48,15.40
2017,07,15,07,49,15.40
2017,07,15,07,50,15.50
2017,07,15,07,51,15.50
2017,07,15,07,52,15.50
2017,07,15,07,53,15.50
2017,07,15,07,54,15.50
2017,07,15,07,55,15.60
2017,07,15,07,56,15.60
2017,07,15,07,57,15.60
2017,07,15,07,58,15.60
2017,07,15,07,59,15.60
2017,07,15,08,00,15.60
2017,07,15,08,01,15.60
2017,07,15,08,02,15.70
2017,07,15,08,03,15.70
2017,07,15,08,04,15.70
2017,07,15,08,05,15.70
2017,07,15,08,06,15.80
2017,07,15,08,07,15.80
2017,07,15,08,08,15.90
2017,07,15,08,09,16.00
2017,07,15,08,10,16.00
2017,07,15,08,11,16.10
2017,07,15,08,12,16.20
2017,07,15,08,13,16.20
2017,07,15,08,14,16.30
2017,07,15,08,15,16.30
2017,07,15,08,16,16.30
2017,07,15,08,17,16.30
2017,07,15,08,18,16.40
2017,07,15,08,19,16.40
2017,07,15,08,20,16.40
2017,07,15,08,21,16.50
2017,07,15,08,22,16.50
2017,07,15,08,23,16.50
2017,07,15,08,24,16.60
2017,07,15,08,25,16.60
2017,07,15,08,26,16.60
2017,07,15,08,27,16.50
2017,07,15,08,28,16.40
2017,07,15,08,29,16.40
2017,07,15,08,30,16.40
2017,07,15,08,31,16.40
2017,07,15,08,32,16.40
2017,07,15,08,33,16.50
2017,07,15,08,34,16.50
2017,07,15,08,35,16.60
2017,07,15,08,36,16.60
2017,07,15,08,37,16.70
2017,07,15,08,38,16.70
2017,07,15,08,39,16.80
2017,07,15,08,40,16.90
2017,07,15,08,41,17.00
2017,07,15,08,42,17.10
2017,07,15,08,43,17.20
2017,07,15,08,44,17.20
2017,07,15,08,45,17.30
2017,07,15,08,46,17.30
2017,07,15,08,47,17.40
2017,07,15,08,48,17.40
2017,07,15,08,49,17.50
2017,07,15,08,50,17.60
2017,07,15,08,51,17.70
2017,07,15,08,52,17.80
2017,07,15,08,53,17.90
2017,07,15,08,54,17.90
2017,07,15,08,55,17.90
2017,07,15,08,56,17.90
2017,07,15,08,57,17.90
2017,07,15,08,58,17.90
2017,07,15,08,59,17.80
2017,07,15,09,00,17.90
2017,07,15,09,01,18.00
2017,07,15,09,02,18.00
2017,07,15,09,03,18.10
2017,07,15,09,04,18.10
2017,07,15,09,05,18.10
2017,07,15,09,06,18.00
2017,07,15,09,07,18.00
2017,07,15,09,08,18.00
2017,07,15,09,09,18.00
2017,07,15,09,10,18.00
2017,07,15,09,11,18.10
2017,07,15,09,12,18.00
2017,07,15,09,13,18.00
2017,07,15,09,14,17.90
2017,07,15,09,15,17.90
2017,07,15,09,16,17.90
2017,07,15,09,17,17.80
2017,07,15,09,18,17.80
2017,07,15,09,19,17.80
2017,07,15,09,20,17.90
2017,07,15,09,21,18.00
2017,07,15,09,22,18.10
2017,07,15,09,23,18.10
2017,07,15,09,24,18.10
2017,07,15,09,25,18.20
2017,07,15,09,26,18.20
2017,07,15,09,27,18.20
2017,07,15,09,28,18.20
2017,07,15,09,29,18.20
2017,07,15,09,30,18.20
2017,07,15,09,31,18.20
2017,07,15,09,32,18.30
2017,07,15,09,33,18.30
2017,07,15,09,34,18.40
2017,07,15,09,35,18.50
2017,07,15,09,36,18.60
2017,07,15,09,37,18.60
2017,07,15,09,38,18.70
2017,07,15,09,39,18.70
2017,07,15,09,40,18.80
2017,07,15,09,41,18.80
2017,07,15,09,42,18.80
2017,07,15,09,43,18.80
2017,07,15,09,44,18.90
2017,07,15,09,45,18.90
2017,07,15,09,46,19.00
2017,07,15,09,47,19.10
2017,07,15,09,48,19.20
2017,07,15,09,49,19.30
2017,07,15,09,50,19.40
2017,07,15,09,51,19.40
2017,07,15,09,52,19.40
2017,07,15,09,53,19.40
2017,07,15,09,54,19.30
2017,07,15,09,55,19.20
2017,07,15,09,56,19.10
2017,07,15,09,57,19.10
2017,07,15,09,58,19.20
2017,07,15,09,59,19.20
2017,07,15,10,00,19.20
2017,07,15,10,01,19.20
2017,07,15,10,02,19.30
2017,07,15,10,03,19.30
2017,07,15,10,04,19.30
2017,07,15,10,05,19.30
2017,07,15,10,06,19.30
2017,07,15,10,07,19.40
2017,07,15,10,08,19.50
2017,07,15,10,09,19.50
2017,07,15,10,10,19.60
2017,07,15,10,11,19.60
2017,07,15,10,12,19.60
2017,07,15,10,13,19.60
2017,07,15,10,14,19.60
2017,07,15,10,15,19.70
2017,07,15,10,16,19.70
2017,07,15,10,17,19.70
2017,07,15,10,18,19.70
2017,07,15,10,19,19.70
2017,07,15,10,20,19.70
2017,07,15,10,21,19.70
2017,07,15,10,22,19.70
2017,07,15,10,23,19.70
2017,07,15,10,24,19.70
2017,07,15,10,25,19.70
2017,07,15,10,26,19.80
2017,07,15,10,27,19.80
2017,07,15,10,28,19.80
2017,07,15,10,29,19.90
2017,07,15,10,30,20.00
2017,07,15,10,31,20.10
2017,07,15,10,32,20.20
2017,07,15,10,33,20.20
2017,07,15,10,34,20.20
2017,07,15,10,35,20.20
2017,07,15,10,36,20.20
2017,07,15,10,37,20.20
2017,07,15,10,38,20.20
2017,07,15,10,39,20.10
2017,07,15,10,40,20.10
2017,07,15,10,41,20.00
2017,07,15,10,42,20.00
2017,07,15,10,43,20.00
2017,07,15,10,44,20.00
2017,07,15,10,45,20.00
2017,07,15,10,46,20.00
2017,07,15,10,47,20.10
2017,07,15,10,48,20.10
2017,07,15,10,49,20.00
2017,07,15,10,50,20.00
2017,07,15,10,51,20.00
2017,07,15,10,52,20.00
2017,07,15,10,53,20.10
2017,07,15,10,54,20.20
2017,07,15,10,55,20.20
2017,07,15,10,56,20.30
2017,07,15,10,57,20.30
2017,07,15,10,58,20.40
2017,07,15,10,59,20.40
2017,07,15,11,00,20.50
2017,07,15,11,01,20.50
2017,07,15,11,02,20.60
2017,07,15,11,03,20.60
2017,07,15,11,04,20.60
2017,07,15,11,05,20.70
2017,07,15,11,06,20.70
2017,07,15,11,07,20.80
2017,07,15,11,08,20.80
2017,07,15,11,09,20.80
2017,07,15,11,10,20.90
2017,07,15,11,11,20.90
2017,07,15,11,12,20.90
2017,07,15,11,13,20.90
2017,07,15,11,14,20.90
2017,07,15,11,15,20.90
2017,07,15,11,16,21.00
2017,07,15,11,17,21.00
2017,07,15,11,18,21.10
2017,07,15,11,19,21.20
2017,07,15,11,20,21.20
2017,07,15,11,21,21.20
2017,07,15,11,22,21.20
2017,07,15,11,23,21.20
2017,07,15,11,24,21.30
2017,07,15,11,25,21.40
2017,07,15,11,26,21.50
2017,07,15,11,27,21.50
2017,07,15,11,28,21.60
2017,07,15,11,29,21.70
2017,07,15,11,30,21.70
2017,07,15,11,31,21.80
2017,07,15,11,32,21.80
2017,07,15,11,33,21.80
2017,07,15,11,34,21.80
2017,07,15,11,35,21.80
2017,07,15,11,36,21.80
2017,07,15,11,37,21.80
2017,07,15,11,38,21.80
2017,07,15,11,39,21.90
2017,07,15,11,40,21.90
2017,07,15,11,41,21.90
2017,07,15,11,42,21.90
2017,07,15,11,43,21.90
2017,07,15,11,44,21.90
2017,07,15,11,45,21.80
2017,07,15,11,46,21.80
2017,07,15,11,47,21.90
2017,07,15,11,48,21.90
2017,07,15,11,49,21.90
2017,07,15,11,50,21.90
2017,07,15,11,51,21.90
2017,07,15,11,52,21.90
2017,07,15,11,53,22.00
2017,07,15,11,54,22.10
2017,07,15,11,55,22.10
2017,07,15,11,56,22.10
2017,07,15,11,57,22.10
2017,07,15,11,58,22.20
2017,07,15,11,59,22.20
2017,07,15,12,00,22.20
2017,07,15,12,01,22.20
2017,07,15,12,02,22.30
2017,07,15,12,03,22.20
2017,07,15,12,04,22.20
2017,07,15,12,05,22.20
2017,07,15,12,06,22.30
2017,07,15,12,07,22.30
2017,07,15,12,08,22.30
2017,07,15,12,09,22.40
2017,07,15,12,10,22.40
2017,07,15,12,11,22.50
2017,07,15,12,12,22.50
2017,07,15,12,13,22.60
2017,07,15,12,14,22.50
2017,07,15,12,15,22.50
2017,07,15,12,16,22.40
2017,07,15,12,17,22.40
2017,07,15,12,18,22.40
2017,07,15,12,19,22.40
2017,07,15,12,20,22.40
2017,07,15,12,21,22.40
2017,07,15,12,22,22.40
2017,07,15,12,23,22.30
2017,07,15,12,24,22.30
2017,07,15,12,25,22.30
2017,07,15,12,26,22.40
2017,07,15,12,27,22.40
2017,07,15,12,28,22.50
2017,07,15,12,29,22.40
2017,07,15,12,30,22.40
2017,07,15,12,31,22.50
2017,07,15,12,32,22.50
2017,07,15,12,33,22.60
2017,07,15,12,34,22.70
2017,07,15,12,35,22.80
2017,07,15,12,36,22.80
2017,07,15,12,37,22.70
2017,07,15,12,38,22.60
2017,07,15,12,39,22.60
2017,07,15,12,40,22.60
2017,07,15,12,41,22.70
2017,07,15,12,42,22.80
2017,07,15,12,43,22.80
2017,07,15,12,44,22.90
2017,07,15,12,45,23.00
2017,07,15,12,46,23.00
2017,07,15,12,47,23.00
2017,07,15,12,48,23.00
2017,07,15,12,49,23.10
2017,07,15,12,50,23.10
2017,07,15,12,51,23.20
2017,07,15,12,52,23.10
2017,07,15,12,53,23.10
2017,07,15,12,54,23.00
2017,07,15,12,55,22.90
2017,07,15,12,56,22.90
2017,07,15,12,57,22.90
2017,07,15,12,58,22.90
2017,07,15,12,59,22.90
2017,07,15,13,00,22.90
2017,07,15,13,01,22.90
2017,07,15,13,02,22.90
2017,07,15,13,03,22.90
2017,07,15,13,04,22.90
2017,07,15,13,05,22.80
2017,07,15,13,06,22.60
2017,07,15,13,07,22.60
2017,07,15,13,08,22.50
2017,07,15,13,09,22.50
2017,07,15,13,10,22.50
2017,07,15,13,11,22.50
2017,07,15,13,12,22.50
2017,07,15,13,13,22.50
2017,07,15,13,14,22.50
2017,07,15,13,15,22.50
2017,07,15,13,16,22.50
2017,07,15,13,17,22.50
2017,07,15,13,18,22.50
2017,07,15,13,19,22.60
2017,07,15,13,20,22.70
2017,07,15,13,21,22.80
2017,07,15,13,22,22.90
2017,07,15,13,23,23.00
2017,07,15,13,24,23.10
2017,07,15,13,25,23.20
2017,07,15,13,26,23.20
2017,07,15,13,27,23.20
2017,07,15,13,28,23.20
2017,07,15,13,29,23.20
2017,07,15,13,30,23.20
2017,07,15,13,31,23.20
2017,07,15,13,32,23.20
2017,07,15,13,33,23.20
2017,07,15,13,34,23.20
2017,07,15,13,35,23.20
2017,07,15,13,36,23.10
2017,07,15,13,37,23.10
2017,07,15,13,38,23.00
2017,07,15,13,39,23.00
2017,07,15,13,40,23.00
2017,07,15,13,41,23.00
2017,07,15,13,42,22.90
2017,07,15,13,43,22.90
2017,07,15,13,44,22.90
2017,07,15,13,45,23.00
2017,07,15,13,46,23.10
2017,07,15,13,47,23.20
2017,07,15,13,48,23.30
2017,07,15,13,49,23.30
2017,07,15,13,50,23.30
2017,07,15,13,51,23.20
2017,07,15,13,52,23.20
2017,07,15,13,53,23.10
2017,07,15,13,54,23.10
2017,07,15,13,55,23.00
2017,07,15,13,56,23.00
2017,07,15,13,57,23.10
2017,07,15,13,58,23.20
2017,07,15,13,59,23.20
2017,07,15,14,00,23.20
2017,07,15,14,01,23.20
2017,07,15,14,02,23.10
2017,07,15,14,03,23.00
2017,07,15,14,04,22.90
2017,07,15,14,05,22.70
2017,07,15,14,06,22.60
2017,07,15,14,07,22.60
2017,07,15,14,08,22.60
2017,07,15,14,09,22.70
2017,07,15,14,10,22.80
2017,07,15,14,11,22.90
2017,07,15,14,12,23.00
2017,07,15,14,13,23.10
2017,07,15,14,14,23.10
2017,07,15,14,15,23.20
2017,07,15,14,16,23.20
2017,07,15,14,17,23.10
2017,07,15,14,18,23.10
2017,07,15,14,19,23.10
2017,07,15,14,20,23.10
2017,07,15,14,21,23.10
2017,07,15,14,22,23.10
2017,07,15,14,23,23.00
2017,07,15,14,24,23.00
2017,07,15,14,25,22.80
2017,07,15,14,26,22.70
2017,07,15,14,27,22.60
2017,07,15,14,28,22.50
2017,07,15,14,29,22.50
2017,07,15,14,30,22.50
2017,07,15,14,31,22.50
2017,07,15,14,32,22.60
2017,07,15,14,33,22.60
2017,07,15,14,34,22.70
2017,07,15,14,35,22.70
2017,07,15,14,36,22.80
2017,07,15,14,37,22.80
2017,07,15,14,38,22.70
2017,07,15,14,39,22.70
2017,07,15,14,40,22.60
2017,07,15,14,41,22.60
2017,07,15,14,42,22.50
2017,07,15,14,43,22.50
2017,07,15,14,44,22.50
2017,07,15,14,45,22.40
2017,07,15,14,46,22.30
2017,07,15,14,47,22.30
2017,07,15,14,48,22.20
2017,07,15,14,49,22.20
2017,07,15,14,50,22.10
2017,07,15,14,51,22.00
2017,07,15,14,52,22.00
2017,07,15,14,53,22.00
2017,07,15,14,54,22.10
2017,07,15,14,55,22.10
2017,07,15,14,56,22.10
2017,07,15,14,57,22.10
2017,07,15,14,58,22.10
2017,07,15,14,59,22.10
2017,07,15,15,00,22.10
2017,07,15,15,01,22.20
2017,07,15,15,02,22.30
2017,07,15,15,03,22.30
2017,07,15,15,04,22.30
2017,07,15,15,05,22.30
2017,07,15,15,06,22.30
2017,07,15,15,07,22.30
2017,07,15,15,08,22.40
2017,07,15,15,09,22.40
2017,07,15,15,10,22.30
2017,07,15,15,11,22.30
2017,07,15,15,12,22.30
2017,07,15,15,13,22.30
2017,07,15,15,14,22.30
2017,07,15,15,15,22.30
2017,07,15,15,16,22.30
2017,07,15,15,17,22.20
2017,07,15,15,18,22.20
2017,07,15,15,19,22.10
2017,07,15,15,20,22.00
2017,07,15,15,21,22.00
2017,07,15,15,22,21.90
2017,07,15,15,23,21.90
2017,07,15,15,24,21.90
2017,07,15,15,25,21.90
2017,07,15,15,26,21.90
2017,07,15,15,27,21.90
2017,07,15,15,28,21.90
2017,07,15,15,29,21.90
2017,07,15,15,30,21.90
2017,07,15,15,31,22.00
2017,07,15,15,32,22.00
2017,07,15,15,33,22.00
2017,07,15,15,34,22.00
2017,07,15,15,35,22.10
2017,07,15,15,36,22.10
2017,07,15,15,37,22.10
2017,07,15,15,38,22.10
2017,07,15,15,39,22.20
2017,07,15,15,40,22.20
2017,07,15,15,41,22.20
2017,07,15,15,42,22.20
2017,07,15,15,43,22.10
2017,07,15,15,44,22.00
2017,07,15,15,45,22.00
2017,07,15,15,46,22.10
2017,07,15,15,47,22.10
2017,07,15,15,48,22.10
2017,07,15,15,49,22.10
2017,07,15,15,50,22.10
2017,07,15,15,51,22.20
2017,07,15,15,52,22.20
2017,07,15,15,53,22.20
2017,07,15,15,54,22.10
2017,07,15,15,55,22.00
2017,07,15,15,56,22.00
2017,07,15,15,57,22.00
2017,07,15,15,58,22.10
2017,07,15,15,59,22.10
2017,07,15,16,00,22.10
2017,07,15,16,01,22.10
2017,07,15,16,02,22.10
2017,07,15,16,03,22.10
2017,07,15,16,04,22.00
2017,07,15,16,05,22.00
2017,07,15,16,06,22.10
2017,07,15,16,07,22.20
2017,07,15,16,08,22.20
2017,07,15,16,09,22.20
2017,07,15,17,04,21.50
2017,07,15,17,05,21.40
2017,07,15,17,06,21.40
2017,07,15,17,07,21.40
2017,07,15,17,08,21.40
2017,07,15,17,09,21.40
2017,07,15,17,10,21.40
2017,07,15,17,11,21.40
2017,07,15,17,12,21.40
2017,07,15,17,13,21.40
2017,07,15,17,14,21.30
2017,07,15,17,15,21.30
2017,07,15,17,16,21.20
2017,07,15,17,17,21.20
2017,07,15,17,18,21.20
2017,07,15,17,19,21.30
2017,07,15,17,20,21.30
2017,07,15,17,21,21.30
2017,07,15,17,22,21.30
2017,07,15,17,23,21.30
2017,07,15,17,24,21.20
2017,07,15,17,25,21.20
2017,07,15,17,26,21.20
2017,07,15,17,27,21.20
2017,07,15,17,28,21.20
2017,07,15,17,29,21.30
2017,07,15,17,30,21.20
2017,07,15,17,31,21.20
2017,07,15,17,32,21.20
2017,07,15,17,33,21.20
2017,07,15,17,34,21.30
2017,07,15,17,35,21.20
2017,07,15,17,36,21.20
2017,07,15,17,37,21.10
2017,07,15,17,38,21.10
2017,07,15,17,39,21.10
2017,07,15,17,40,21.00
2017,07,15,17,41,20.90
2017,07,15,17,42,20.90
2017,07,15,17,43,20.80
2017,07,15,17,44,20.80
2017,07,15,17,45,20.80
2017,07,15,17,46,20.80
2017,07,15,17,47,20.80
2017,07,15,17,48,20.80
2017,07,15,17,49,20.80
2017,07,15,17,50,20.90
2017,07,15,17,51,21.00
2017,07,15,17,52,21.10
2017,07,15,17,53,21.20
2017,07,15,17,54,21.20
2017,07,15,17,55,21.20
2017,07,15,17,56,21.20
2017,07,15,17,57,21.10
2017,07,15,17,58,21.10
2017,07,15,17,59,21.00
2017,07,15,18,00,21.00
2017,07,15,18,01,20.90
2017,07,15,18,02,20.90
2017,07,15,18,03,20.90
2017,07,15,18,04,20.90
2017,07,15,18,05,20.90
2017,07,15,18,06,20.80
2017,07,15,18,07,20.80
2017,07,15,18,08,20.80
2017,07,15,18,09,20.70
2017,07,15,18,10,20.80
2017,07,15,18,11,20.90
2017,07,15,18,12,20.90
2017,07,15,18,13,21.00
2017,07,15,18,14,21.00
2017,07,15,18,15,21.10
2017,07,15,18,16,21.10
2017,07,15,18,17,21.10
2017,07,15,18,18,21.00
2017,07,15,18,19,21.00
2017,07,15,18,20,20.90
2017,07,15,18,21,20.90
2017,07,15,18,22,20.90
2017,07,15,18,23,20.90
2017,07,15,18,24,20.90
2017,07,15,18,25,20.90
2017,07,15,18,26,20.70
2017,07,15,18,27,20.60
2017,07,15,18,28,20.40
2017,07,15,18,29,20.30
2017,07,15,18,30,20.20
2017,07,15,18,31,20.20
2017,07,15,18,32,20.10
2017,07,15,18,33,20.00
2017,07,15,18,34,20.00
2017,07,15,18,35,19.90
2017,07,15,18,36,19.90
2017,07,15,18,37,19.90
2017,07,15,18,38,19.90
2017,07,15,18,39,19.90
2017,07,15,18,40,19.90
2017,07,15,18,41,19.90
2017,07,15,18,42,19.90
2017,07,15,18,43,19.90
2017,07,15,18,44,19.90
2017,07,15,18,45,19.80
2017,07,15,18,46,19.80
2017,07,15,18,47,19.80
2017,07,15,18,48,19.80
2017,07,15,18,49,19.80
2017,07,15,18,50,19.80
2017,07,15,18,51,19.80
2017,07,15,18,52,19.80
2017,07,15,18,53,19.90
2017,07,15,18,54,19.90
2017,07,15,18,55,19.90
2017,07,15,18,56,19.90
2017,07,15,18,57,19.90
2017,07,15,18,58,19.80
2017,07,15,18,59,19.80
2017,07,15,19,00,19.80
2017,07,15,19,01,19.70
2017,07,15,19,02,19.70
2017,07,15,19,03,19.70
2017,07,15,19,04,19.70
2017,07,15,19,05,19.60
2017,07,15,19,06,19.60
2017,07,15,19,07,19.60
2017,07,15,19,08,19.60
2017,07,15,19,09,19.60
2017,07,15,19,10,19.60
2017,07,15,19,11,19.70
2017,07,15,19,12,19.70
2017,07,15,19,13,19.70
2017,07,15,19,14,19.70